Regional Weather Roundup
Issued by NWS Sioux Falls, SD

Home | Current Version | Previous Version | Text Only | Print | Product List | Glossary On
Versions: 1 2 3 4 5 6 7 8 9 10 11 12 13 14 15 16 17 18 19 20 21 22 23 24 25 26 27 28 29 30 31 32 33 34 35 36 37 38 39 40 41 42 43 44 45 46 47 48 49 50
000
ASUS43 KFSD 210210
RWRFSD

WEATHER ROUNDUP FOR SE SOUTH DAKOTA/SW MINNESOTA/NW IOWA
NATIONAL WEATHER SERVICE SIOUX FALLS SD
900 PM CDT SUN APR 20 2014

NOTE: "FAIR" INDICATES FEW OR NO CLOUDS BELOW 12,000 FEET WITH NO
SIGNIFICANT WEATHER AND OR OBSTRUCTIONS TO VISIBILITY.


SDZ038>040-050-052>070-210300-
SOUTHEAST SOUTH DAKOTA

CITY           SKY/WX    TMP DP  RH WIND       PRES   REMARKS
CHAMBERLAIN      N/A     67  48  50 E9        29.87R
HURON          CLEAR     63  42  46 NE7       29.84R
MADISON        FAIR      66  41  39 E5        29.88R
MITCHELL       CLEAR     69  44  40 SE8       29.84S
SIOUX FALLS    PTCLDY    63  49  60 NE3       29.86R
WINNER         FAIR      69  46  43 S9        29.85R
YANKTON        PTCLDY    72  48  43 S7        29.86R
$$

MNZ071-072-080-081-089-090-097-098-210300-
SOUTHWEST MINNESOTA

CITY           SKY/WX    TMP DP  RH WIND       PRES   REMARKS
FAIRMONT       MOCLDY    66  54  63 E10       29.91F
JACKSON        CLOUDY    68  54  60 E10       29.90S
LUVERNE        PTCLDY    68  50  52 E5        29.87S
MARSHALL       PTCLDY    63  45  51 NE9       29.90R
MONTEVIDEO     CLOUDY    63  43  48 SE10      29.91S
PIPESTONE      PTCLDY    66  46  48 E3        29.89R
REDWOOD FALLS  PTCLDY    68  48  48 E6        29.91R
TRACY          PTCLDY    64  50  60 CALM      29.91R
WINDOM         MOCLDY    66  54  63 NE10      29.90R
WORTHINGTON    CLOUDY    70  50  49 S10       29.92R
$$

IAZ001>003-012>014-020>022-031-032-NEZ013-014-SDZ071-210300-
NORTHWEST IOWA

CITY           SKY/WX    TMP DP  RH WIND       PRES   REMARKS
CHEROKEE       CLOUDY    67  55  63 NW6       29.90R THUNDER
DENISON        CLOUDY    64  57  77 SE10      29.94S
ESTHERVILLE    TSTM      63  60  90 SE15G28   29.92R FOG
LE MARS        CLOUDY    68  57  68 SE7       29.89R
ORANGE CITY    CLOUDY    64  55  72 S5        29.89R
SHELDON        CLOUDY    68  54  60 S10       29.88R
SIOUX CITY     CLOUDY    67  55  65 SW13      29.89R
SPENCER        LGT RAIN  67  56  67 S16       29.89F
STORM LAKE     CLOUDY    70  52  52 SW10      29.93R
$$

ABBREVIATIONS USED IN REMARKS
   TC - TEMPERATURE IN CELSIUS
  WCI - WIND CHILL INDEX
   HX - HEAT INDEX
  VSB - VISIBILITY




USA.gov is the U.S. government's official web portal to all federal, state and local government web resources and services.